Location: Newark
(42.8481°N, 0.4872°E)
Time: 00:02:35
(UTC+00:00)

Transit 2A - Pass Details

Date: 01 November 2020
Orbit: 595 x 963 km, 66.7° (Epoch: 03 December)

Event Time Altitude Azimuth Distance (km) Brightness Sun altitude
Rises 02:45:46 0° 280° (W) 3,645 - -41.6°
Reaches altitude 10° 02:50:28 10° 311° (NW) 2,674 - -40.8°
Maximum altitude 02:52:39 12° 332° (NNW) 2,523 - -40.4°
Drops below altitude 10° 02:54:48 10° 352° (N) 2,627 - -40.0°
Exits shadow 02:56:04 - 3° (N) 2,798 9.1 -39.8°
Sets 02:59:19 0° 24° (NNE) 3,495 9.9 -39.2°
